This is the latest recevied weather packets stored in our database for station/object DO1SN-13. If no packets are shown the sender has not sent any weather packets the latest 10 day(s).
| Time | Temp. | Humidity | Pressure | Rain* | Wind** | Luminosity | Snow |
|---|---|---|---|---|---|---|---|
| 1787590980 | 23.33° C | - | 1018.9 hPa | 0 mm | - | - | - |
| 1787590616 | 23.33° C | - | 1019 hPa | 0 mm | - | - | - |
| 1787590252 | 23.89° C | - | 1019.3 hPa | 0 mm | - | - | - |
| 1787589888 | 24.44° C | - | 1019.2 hPa | 0 mm | - | - | - |
| 1787589524 | 24.44° C | - | 1019.3 hPa | 0 mm | - | - | - |
| 1787589159 | 24.44° C | - | 1019.5 hPa | 0 mm | - | - | - |
| 1787588795 | 24.44° C | - | 1019.5 hPa | 0 mm | - | - | - |
| 1787588431 | 25° C | - | 1019.6 hPa | 0 mm | - | - | - |
| 1787588066 | 25° C | - | 1019.6 hPa | 0 mm | - | - | - |
| 1787587702 | 25.56° C | - | 1019.9 hPa | 0 mm | - | - | - |
| 1787587338 | 25° C | - | 1019.8 hPa | 0 mm | - | - | - |
| 1787586974 | 25° C | - | 1019.6 hPa | 0 mm | - | - | - |
| 1787586610 | 25° C | - | 1019.7 hPa | 0 mm | - | - | - |
| 1787586246 | 25.56° C | - | 1019.7 hPa | 0 mm | - | - | - |
| 1787585881 | 25.56° C | - | 1019.9 hPa | 0 mm | - | - | - |
| 1787585517 | 26.11° C | - | 1020 hPa | 0 mm | - | - | - |
| 1787585153 | 25.56° C | - | 1020 hPa | 0 mm | - | - | - |
| 1787584788 | 27.22° C | - | 1020.1 hPa | 0 mm | - | - | - |
| 1787584424 | 26.67° C | - | 1020.3 hPa | 0 mm | - | - | - |
| 1787584060 | 27.22° C | - | 1020.3 hPa | 0 mm | - | - | - |
| 1787583696 | 27.78° C | - | 1020.2 hPa | 0 mm | - | - | - |
| 1787583332 | 27.22° C | - | 1020.3 hPa | 0 mm | - | - | - |
| 1787582968 | 27.22° C | - | 1020.5 hPa | 0 mm | - | - | - |
| 1787582604 | 27.78° C | - | 1020.6 hPa | 0 mm | - | - | - |
| 1787582239 | 28.33° C | - | 1020.8 hPa | 0 mm | - | - | - |
* Rain latest hour (hover to see other rain measurements)
** Current wind speed in m/s (hover to see current wind gust speed)